Regional Weather Roundup
Issued by NWS

Home | Current Version | Previous Version | Text Only | Print | Product List | Glossary On
Versions: 1 2 3 4 5 6 7 8 9 10 11 12 13 14 15 16 17 18 19 20 21 22 23 24 25 26 27 28 29 30 31 32 33 34 35 36 37 38 39 40 41 42 43 44 45 46 47 48 49 50
000
ASUS44 KLUB 271401
RWRTX
WEST TEXAS WEATHER ROUNDUP
NATIONAL WEATHER SERVICE LUBBOCK TX
900 AM CDT FRI MAR 27 2015

NOTE: "FAIR" INDICATES FEW OR NO CLOUDS BELOW 12,000 FEET WITH NO
SIGNIFICANT WEATHER AND/OR OBSTRUCTIONS TO VISIBILITY.

TXZ004-006>008-010-012-014-016-OKZ002-271500-
TEXAS PANHANDLE/OKLAHOMA PANHANDLE

CITY           SKY/WX    TMP DP  RH WIND       PRES   REMARKS
AMARILLO       SUNNY     48  28  46 E7        30.20S
BORGER         SUNNY     45  29  53 VRB3      30.21R
CANADIAN       MOSUNNY   46  35  64 NE9       30.21R
DALHART        SUNNY     44  27  51 N3        30.21R
DUMAS          MOSUNNY   40  28  61 NE6       30.21R
GUYMON         SUNNY     42  33  70 NE6       30.22R
$$

TXZ026-029-035-045-048-271500-
SOUTHERN PANHANDLE/SOUTH PLAINS/ROLLING PLAINS

CITY           SKY/WX    TMP DP  RH WIND       PRES   REMARKS
CHILDRESS      MOSUNNY   48  30  49 N5        30.20R
LUBBOCK        MOSUNNY   47  26  44 N7        30.20R
$$

TXZ052-054-060>062-072-078-127-140-154-169-271500-
PERMIAN BASIN/CONCHO VALLEY/BIG COUNTRY/EDWARDS PLATEAU

CITY           SKY/WX    TMP DP  RH WIND       PRES   REMARKS
ABILENE        SUNNY     52  31  44 N7        30.21R
JUNCTION       SUNNY     41  34  76 W5        30.21R
MIDLAND        SUNNY     49  35  58 SW6       30.21R
ODESSA           N/A     49  34  56 CALM      30.21R
SAN ANGELO     SUNNY     48  33  56 SW8       30.21R
WINK           SUNNY     46  34  62 CALM      30.21R
$$

TXZ055-058-074-075-080-082-271500-
FAR WEST/SOUTHWEST MOUNTAINS/TRANS PECOS

CITY           SKY/WX    TMP DP  RH WIND       PRES   REMARKS
DRYDEN           N/A     52  37  56 SW8       30.22R
EL PASO        MOSUNNY   48  31  51 CALM      30.26R
FORT STOCKTON    N/A     51  32  48 SW15      30.23R
GUADALUPE PASS SUNNY     46  27  47 W18       30.29R
MARFA          SUNNY     39  36  87 CALM      30.32S
$$

TXZ014-016-019-021>030-083-271500
TEXAS TECH WEST TEXAS MESONET/TEXAS PANHANDLE/NORTHERN SOUTH PLAINS

CITY           SKY/WX    TMP DP  RH WIND       PRES   REMARKS
ABERNATHY 5ENE   N/A     39  28  65 N5        30.22R
AMARILLO 9NNE    N/A     38  24  56 S1        30.20S
AMARILLO 7SSE    N/A     46  33  60 E1        30.21R
AMHERST 1NE      N/A     45  29  55 NW5       30.21R
BOOTLEG 11WNW    N/A     44  22  43 NW7       30.22R
CANADIAN 6E      N/A     44  33  66 N15       30.20R
CAPROCK CYN SP   N/A     51  27  38 CALM      30.22R
CHILDRESS 2NNE   N/A     49  29  46 N3        30.19R
CLARENDON 2WSW   N/A     44  30  59 N2        30.20R
CLAUDE 12SW      N/A     46  27  47 NE3       30.19F
DIMMITT 2NE      N/A     42  27  53 NW2       30.20S
FLOYDADA 2NNE    N/A     42  26  53 NW5       30.21R
FRIONA 2NE       N/A     39  25  57 W2        30.21S
GOODLETT 3W      N/A     49  29  45 NW5       30.18R
HART 3N          N/A     42  27  56 N2        30.20S
HEREFORD 2NW     N/A     40  26  57 N2        30.20R
MCLEAN 1E        N/A     45  30  55 N6        30.18R
MEMPHIS 1NE      N/A     50  30  46 N7        30.20R
MULESHOE 2SSW    N/A     38  29  69 NW2       30.21R
OLTON 6S         N/A     44  30  57 W2        30.21R
PALO DURO SP     N/A     50  24  36 E3        30.21S
PAMPA 2E         N/A     42  32  66 NE3       30.19R
PLAINVIEW 1S     N/A     39  26  58 NE3       30.21R
SILVERTON 7ESE   N/A     43  30  59 CALM      30.22R
TULIA 2ENE       N/A     37  26  64 W2        30.20R
TURKEY 2WSW      N/A     50  25  36 W2        30.20R
UMBARGER 3NNE    N/A     45  29  55 E2        30.20F
$$

TXZ033>036-039>041-045>048-271500
TEXAS TECH WEST TEXAS MESONET/SOUTH PLAINS

CITY           SKY/WX    TMP DP  RH WIND       PRES   REMARKS
AIKEN 3WSW       N/A     40  27  57 N6        30.22S
ANDREWS 2NE      N/A     49  31  49 SW6       30.20S
ANTON 6SSW       N/A     47  28  47 SW6       30.20R
DENVR CTY 7WNW   N/A     43  27  52 SW8       30.19S
GAIL 2ESE        N/A     52  27  37 W9        30.19R
LAMESA 2SE       N/A     43  30  58 SW6       30.20S
LEVELLAND 4S     N/A     46  25  43 SW10      30.18S
LUBBOCK 3WNW     N/A     42  23  46 N1        30.20R
MORTON 1ENE      N/A     43  27  53 SW9       30.18S
ODONNELL 1N      N/A     43  26  51 W6        30.20R
PLAINS 3N        N/A     45  28  53 SW9       30.19S
RALLS 1SE        N/A     41  24  50 N6        30.22R
REESE CENTER     N/A     49  25  39 W5        30.20R
SEAGRAVES 1SW    N/A     44  28  53 SW8       30.19S
SEMINOLE 2NNE    N/A     45  29  52 SW9       30.19S
SLATON 2NE       N/A     42  24  49 N6        30.21R
SNYDER 3E        N/A     45  31  59 SW2       30.20R
SUNDOWN 8SW      N/A     45  26  47 SW9       30.19R
TAHOKA 3NNE      N/A     50  26  40 W7        30.19S
WOLFFORTH 6SSW   N/A     48  28  44 SW12      30.19S
$$

TXZ031-032-036>038-042>044-271500-
TEXAS TECH WEST TEXAS MESONET/ROLLING PLAINS

CITY           SKY/WX    TMP DP  RH WIND       PRES   REMARKS
ASPERMONT 3NE    N/A     48  29  48 W3        30.20R
FLUVANNA 3WNW    N/A     50  27  41 SW6       30.20R
GRAHAM 5SSW      N/A     46  25  44 W12       30.20R
GUTHRIE 10WSW    N/A     47  28  47 SW1       30.20R
HASKELL 1NW      N/A     48  32  53 W7        30.18R
JAYTON 1SSE      N/A     47  28  46 W6        30.21R
KNOX CITY 3NW    N/A     49  31  50 W5        30.19R
LK A HENRY 1NW   N/A     48  29  46 CALM      30.20S
NORTHFIELD 1S    N/A     47  27  45 CALM      30.21R
ODELL 4ENE       N/A     48  35  59 NW5       30.19S
PADUCAH 10SW     N/A     53  26  35 NW6       30.20R
POST 1NE         N/A     51  26  37 NE1       30.19R
RRING SPRGS 3N   N/A     53  24  32 N2        30.21R
SEYMOUR 3NW      N/A     47  38  72 W1        30.18R
SPUR 1W          N/A     45  28  51 W1        30.20R
WEINERT 2NNE     N/A     51  31  48 W6        30.19R
WHITE RVR 6NE    N/A     48  23  37 NW14      30.20R
$$

TXZ052-054-060>062-072-078-127-140-154-169-271500-
TEXAS TECH WEST TEXAS MESONET/PERMIAN BASIN/
CONCHO VALLEY/BIG COUNTRY/EDWARDS PLATEAU

CITY           SKY/WX    TMP DP  RH WIND       PRES   REMARKS
COYANOSA 2N      N/A     47  38  70 CALM      30.23R
JUNCTION 1SSW    N/A     42  34  73 S2        30.23R
MERTZON 3NNE     N/A     50  34  54 S5        30.22S
SAN ANGELO 7NW   N/A     47  33  59 W6        30.22R
STRLNG CT 4WSW   N/A     47  35  63 NE1       30.22R
ST LAWRNCE 5SW   N/A     45  35  67 SW6       30.21S
SWEETWATR 11SW   N/A     49  32  52 SW6       30.22R
WALL 1E          N/A     46  31  56 W12       30.21S
$$

TXZ055-058-074-075-080-082-271500-
TEXAS TECH WEST TEXAS MESONET/FAR WEST/SOUTHWEST MOUNTAINS/TRANS PECOS

CITY           SKY/WX    TMP DP  RH WIND       PRES   REMARKS
PRSMN GAP BBNP   N/A     43  37  79 SW5       30.28S
$$


USA.gov is the U.S. government's official web portal to all federal, state and local government web resources and services.